Regional Weather Roundup
Issued by NWS Green Bay, WI

Home | Current Version | Previous Version | Text Only | Print | Product List | Glossary On
Versions: 1 2 3 4 5 6 7 8 9 10 11 12 13 14 15 16 17 18 19 20 21 22 23 24 25 26 27 28 29 30 31 32 33 34 35 36 37 38 39 40 41 42 43 44 45 46 47 48 49 50
000
ASUS43 KGRB 240111
RWRGRB

NORTH-CENTRAL AND NORTHEAST WISCONSIN REGIONAL WEATHER ROUNDUP
NATIONAL WEATHER SERVICE GREEN BAY WI
800 PM CDT TUE AUG 23 2016

WIZ005-009-010>012-018-019-240200-
NORTH CENTRAL WISCONSIN

CITY           SKY/WX    TMP DP  RH WIND       PRES   REMARKS
IRONWOOD       CLOUDY    75  63  66 S8        29.96S
MANITOWISH WTR CLOUDY    70  65  84 S7        30.00F
ARBOR VITAE    CLOUDY    72  64  75 S9        30.01F
EAGLE RIVER    PTCLDY    69  59  70 S3        30.02F
LAND O LAKES   PTCLDY    71  61  70 S5        30.03S
RHINELANDER    PTCLDY    71  63  75 S3        30.04S
PHILLIPS       CLOUDY    71  65  80 S6        29.99F
ANTIGO         MOCLDY    68  62  81 S6        30.05F
TOMAHAWK       CLOUDY    67  61  80 CALM      30.03S
MERRILL        PTCLDY    72  63  74 S5        30.03S
$$

WIZ013-073-240200-
NORTHEAST WISCONSIN

CITY           SKY/WX    TMP DP  RH WIND       PRES   REMARKS
IRON MOUNTAIN  PTCLDY    71  62  73 SE6       30.03S
MARINETTE        N/A    N/A N/A N/A MISG        N/A
OCONTO         MOCLDY    72  66  80 SE7       30.04F
$$

WIZ017-030-035>037-045-240200-
CENTRAL WISCONSIN

CITY           SKY/WX    TMP DP  RH WIND       PRES   REMARKS
MEDFORD        CLOUDY    68  65  90 S5        30.01S
WAUSAU         MOCLDY    71  62  73 SE6       30.00F
MOSINEE        PTCLDY    70  63  78 SE6       30.03F
MARSHFIELD     MOCLDY    70  61  73 S7        30.01S
WISC RAPIDS    CLOUDY    72  63  73 SE5       30.03F
STEVENS POINT  CLOUDY    72  61  69 CALM      30.03S
WAUPACA        PTCLDY    73  63  71 SE6       30.04S
SHAWANO        PTCLDY    74  63  68 S5        30.04F
CLINTONVILLE   PTCLDY    70  61  73 S5        30.03F
WAUTOMA        CLEAR     72  63  73 S7        30.03F
$$

WIZ038-039-048-051-240200-
FOX VALLEY

CITY           SKY/WX    TMP DP  RH WIND       PRES   REMARKS
NWS GREEN BAY  CLEAR     72  64  76 S7        30.05F
APPLETON       PTCLDY    73  57  56 S9        30.04F
OSHKOSH        CLEAR     68  61  78 S5        30.05F
FOND DU LAC    CLEAR     71  61  70 S9        30.06F
$$

WIZ022-050-052-240200-
EAST CENTRAL WISCONSIN

CITY           SKY/WX    TMP DP  RH WIND       PRES   REMARKS
EPHRAIM        FAIR      69  64  83 S14G20    30.06F
WASHINGTON ISL NOT AVBL
STURGEON BAY   PTCLDY    70  62  76 S10       30.07F
MANITOWOC      PTCLDY    70  62  76 S14       30.08F
SHEBOYGAN      CLEAR     70  62  76 S8        30.08F
$$

LMZ563-521-522-541>543-240200-
LAKESHORE

STATION/POSITION TIME  TEMP    WIND        PRES    VSBY  WAVE
                       AIR SEA DIR/SP/G                  HT/PER
                 (UTC) (F)     (DEG/KT/KT) (MB)    (MI)  (FT/S)
SHEBOYGAN LKSHOR 0100   67     180/ 17/ 18 1017.9F
KEWAUNEE LKSHORE 0000   67     180/ 15/ 18 1018.4R
NORTHPORT PIER   0000   72     160/  8/ 18 1018.3R
N MID LAKE BUOY  0050   72 71  200/ 19/ 23 1017.5R         6/ 6
S GREEN BAY BUOY 0000   74 74  160/ 14/ 17 1017.2S
SISTER BAY LKSHO 0007   73     190/ 17/ 21   N/A
CHAMBERS ISLAND  0000   74     160/  7/ 12 1017.6R
MENOMINEE LKSHOR 0000   73     170/  8/ 12 1016.8R
$$




USA.gov is the U.S. government's official web portal to all federal, state and local government web resources and services.